Time,TemperatureF,DewpointF,PressureIn,WindDirection,WindDirectionDegrees,WindSpeedMPH,WindSpeedGustMPH,Humidity,HourlyPrecipIn,Conditions,Clouds,dailyrainin,SoftwareType,DateUTC
2013-07-08 00:01:00,78.8,62.8,30.09,SSW,203,3.8,3.8,58,0.00,,,0.00,WUHU216HW,2013-07-08 05:01:00,
2013-07-08 00:06:00,78.7,63.2,30.10,SSE,158,2.2,3.8,59,0.00,,,0.00,WUHU216HW,2013-07-08 05:06:00,
2013-07-08 00:11:00,78.5,63.0,30.09,SSE,158,1.6,4.9,59,0.00,,,0.00,WUHU216HW,2013-07-08 05:11:00,
2013-07-08 00:16:00,78.5,63.0,30.09,SSW,203,0.4,4.9,59,0.00,,,0.00,WUHU216HW,2013-07-08 05:16:00,
2013-07-08 00:21:00,78.5,63.5,30.08,South,180,1.8,3.1,60,0.00,,,0.00,WUHU216HW,2013-07-08 05:21:00,
2013-07-08 00:26:00,78.3,63.4,30.09,South,180,2.5,3.6,60,0.00,,,0.00,WUHU216HW,2013-07-08 05:26:00,
2013-07-08 00:31:00,78.1,63.2,30.09,SE,135,2.5,3.6,60,0.00,,,0.00,WUHU216HW,2013-07-08 05:31:00,
2013-07-08 00:36:00,78.1,63.2,30.08,SSE,158,2.5,3.6,60,0.00,,,0.00,WUHU216HW,2013-07-08 05:36:00,
2013-07-08 00:41:00,77.9,63.5,30.08,SSW,203,3.4,3.4,61,0.00,,,0.00,WUHU216HW,2013-07-08 05:41:00,
2013-07-08 00:46:00,77.9,63.5,30.08,SSE,158,1.1,3.4,61,0.00,,,0.00,WUHU216HW,2013-07-08 05:46:00,
2013-07-08 00:51:00,77.8,63.7,30.08,SE,135,2.7,3.4,62,0.00,,,0.00,WUHU216HW,2013-07-08 05:51:00,
2013-07-08 00:56:00,77.8,63.3,30.09,South,180,1.3,4.3,61,0.00,,,0.00,WUHU216HW,2013-07-08 05:56:00,
2013-07-08 01:01:00,77.8,63.7,30.09,SSW,203,2.5,4.3,62,0.00,,,0.00,WUHU216HW,2013-07-08 06:01:00,
2013-07-08 01:06:00,77.6,63.6,30.09,South,180,1.3,3.4,62,0.00,,,0.00,WUHU216HW,2013-07-08 06:06:00,
2013-07-08 01:11:00,77.6,63.6,30.09,SE,135,3.6,3.6,62,0.00,,,0.00,WUHU216HW,2013-07-08 06:11:00,
2013-07-08 01:16:00,77.4,63.4,30.09,South,180,1.6,3.6,62,0.00,,,0.00,WUHU216HW,2013-07-08 06:16:00,
2013-07-08 01:21:00,77.4,63.4,30.09,South,180,2.0,3.6,62,0.00,,,0.00,WUHU216HW,2013-07-08 06:21:00,
2013-07-08 01:26:00,77.4,63.8,30.09,SSW,203,4.5,4.5,63,0.00,,,0.00,WUHU216HW,2013-07-08 06:26:00,
2013-07-08 01:31:00,77.4,63.8,30.09,South,180,1.1,4.5,63,0.00,,,0.00,WUHU216HW,2013-07-08 06:31:00,
2013-07-08 01:36:00,77.4,63.8,30.09,SSE,158,1.8,4.5,63,0.00,,,0.00,WUHU216HW,2013-07-08 06:36:00,
2013-07-08 01:41:00,77.2,64.1,30.09,South,180,1.8,3.4,64,0.00,,,0.00,WUHU216HW,2013-07-08 06:41:00,
2013-07-08 01:46:00,77.0,63.9,30.09,South,180,2.5,4.3,64,0.00,,,0.00,WUHU216HW,2013-07-08 06:46:00,
2013-07-08 01:51:00,77.0,63.9,30.08,SSE,158,1.6,4.3,64,0.00,,,0.00,WUHU216HW,2013-07-08 06:51:00,
2013-07-08 01:56:00,77.0,63.9,30.08,SSW,203,2.5,4.0,64,0.00,,,0.00,WUHU216HW,2013-07-08 06:56:00,
2013-07-08 02:01:00,77.0,64.4,30.08,SSW,203,1.6,4.0,65,0.00,,,0.00,WUHU216HW,2013-07-08 07:01:00,
2013-07-08 02:06:00,76.9,64.2,30.08,SSE,158,2.7,3.8,65,0.00,,,0.00,WUHU216HW,2013-07-08 07:06:00,
2013-07-08 02:11:00,76.9,64.2,30.08,South,180,1.8,4.0,65,0.00,,,0.00,WUHU216HW,2013-07-08 07:11:00,
2013-07-08 02:16:00,76.7,64.0,30.08,SSW,203,1.8,4.0,65,0.00,,,0.00,WUHU216HW,2013-07-08 07:16:00,
2013-07-08 02:21:00,76.7,64.0,30.08,South,180,1.8,3.6,65,0.00,,,0.00,WUHU216HW,2013-07-08 07:21:00,
2013-07-08 02:26:00,76.7,64.4,30.08,SSW,203,3.4,3.6,66,0.00,,,0.00,WUHU216HW,2013-07-08 07:26:00,
2013-07-08 02:31:00,76.7,64.4,30.08,SW,225,2.7,3.6,66,0.00,,,0.00,WUHU216HW,2013-07-08 07:31:00,
2013-07-08 02:36:00,76.7,64.4,30.08,SSE,158,0.9,4.7,66,0.00,,,0.00,WUHU216HW,2013-07-08 07:36:00,
2013-07-08 02:41:00,76.5,64.3,30.08,South,180,2.2,4.7,66,0.00,,,0.00,WUHU216HW,2013-07-08 07:41:00,
2013-07-08 02:46:00,76.5,64.3,30.08,SSE,158,1.6,3.6,66,0.00,,,0.00,WUHU216HW,2013-07-08 07:46:00,
2013-07-08 02:51:00,76.5,64.3,30.08,SSE,158,1.8,3.6,66,0.00,,,0.00,WUHU216HW,2013-07-08 07:51:00,
2013-07-08 02:56:00,76.5,64.3,30.08,SSW,203,0.9,3.8,66,0.00,,,0.00,WUHU216HW,2013-07-08 07:56:00,
2013-07-08 03:01:00,76.5,64.3,30.09,WSW,248,0.9,3.8,66,0.00,,,0.00,WUHU216HW,2013-07-08 08:01:00,
2013-07-08 03:06:00,76.5,64.3,30.09,SW,225,1.1,3.4,66,0.00,,,0.00,WUHU216HW,2013-07-08 08:06:00,
2013-07-08 03:11:00,76.5,64.3,30.09,SW,225,0.7,1.6,66,0.00,,,0.00,WUHU216HW,2013-07-08 08:11:00,
2013-07-08 03:16:00,76.5,64.3,30.08,SSW,203,2.5,2.5,66,0.00,,,0.00,WUHU216HW,2013-07-08 08:16:00,
2013-07-08 03:21:00,76.3,64.5,30.09,WSW,248,1.3,2.5,67,0.00,,,0.00,WUHU216HW,2013-07-08 08:21:00,
2013-07-08 03:26:00,76.3,64.5,30.09,WSW,248,1.3,2.5,67,0.00,,,0.00,WUHU216HW,2013-07-08 08:26:00,
2013-07-08 03:31:00,76.5,64.3,30.09,SW,225,2.2,3.1,66,0.00,,,0.00,WUHU216HW,2013-07-08 08:31:00,
2013-07-08 03:36:00,76.7,64.4,30.09,SW,225,1.1,5.4,66,0.00,,,0.00,WUHU216HW,2013-07-08 08:36:00,
2013-07-08 03:41:00,76.7,64.4,30.09,SSE,158,1.6,5.4,66,0.00,,,0.00,WUHU216HW,2013-07-08 08:41:00,
2013-07-08 03:46:00,76.7,64.4,30.09,SSW,203,0.4,4.0,66,0.00,,,0.00,WUHU216HW,2013-07-08 08:46:00,
2013-07-08 03:51:00,76.7,64.4,30.09,SSE,158,1.3,4.0,66,0.00,,,0.00,WUHU216HW,2013-07-08 08:51:00,
2013-07-08 03:56:00,76.7,64.4,30.10,SSW,203,1.1,3.8,66,0.00,,,0.00,WUHU216HW,2013-07-08 08:56:00,
2013-07-08 04:01:00,76.7,64.4,30.10,SSE,158,0.9,3.1,66,0.00,,,0.00,WUHU216HW,2013-07-08 09:01:00,
2013-07-08 04:06:00,76.7,64.4,30.10,SSW,203,2.5,2.7,66,0.00,,,0.00,WUHU216HW,2013-07-08 09:06:00,
2013-07-08 04:11:00,76.7,64.4,30.10,South,180,2.0,2.5,66,0.00,,,0.00,WUHU216HW,2013-07-08 09:11:00,
2013-07-08 04:16:00,76.7,64.4,30.10,SSE,158,1.1,4.0,66,0.00,,,0.00,WUHU216HW,2013-07-08 09:16:00,
2013-07-08 04:21:00,76.7,64.4,30.10,South,180,1.1,4.0,66,0.00,,,0.00,WUHU216HW,2013-07-08 09:21:00,
2013-07-08 04:26:00,76.7,64.4,30.10,South,180,1.1,3.4,66,0.00,,,0.00,WUHU216HW,2013-07-08 09:26:00,
2013-07-08 04:31:00,76.7,64.4,30.10,South,180,2.2,3.4,66,0.00,,,0.00,WUHU216HW,2013-07-08 09:31:00,
2013-07-08 04:36:00,76.7,64.4,30.10,SW,225,0.9,3.4,66,0.00,,,0.00,WUHU216HW,2013-07-08 09:36:00,
2013-07-08 04:41:00,76.7,64.4,30.10,WSW,248,1.3,3.4,66,0.00,,,0.00,WUHU216HW,2013-07-08 09:41:00,
2013-07-08 04:46:00,76.7,64.4,30.10,South,180,0.9,4.9,66,0.00,,,0.00,WUHU216HW,2013-07-08 09:46:00,
2013-07-08 04:51:00,76.7,64.4,30.11,WSW,248,0.9,4.9,66,0.00,,,0.00,WUHU216HW,2013-07-08 09:51:00,
2013-07-08 04:56:00,76.7,64.9,30.10,SE,135,2.5,4.0,67,0.00,,,0.00,WUHU216HW,2013-07-08 09:56:00,
2013-07-08 05:01:00,76.7,64.9,30.10,SW,225,1.3,4.0,67,0.00,,,0.00,WUHU216HW,2013-07-08 10:01:00,
2013-07-08 05:06:00,76.5,65.2,30.10,SSW,203,2.0,2.9,68,0.00,,,0.00,WUHU216HW,2013-07-08 10:06:00,
2013-07-08 05:11:00,76.5,65.2,30.10,SSW,203,1.8,2.9,68,0.00,,,0.00,WUHU216HW,2013-07-08 10:11:00,
2013-07-08 05:16:00,76.5,65.2,30.10,SSW,203,1.1,3.4,68,0.00,,,0.00,WUHU216HW,2013-07-08 10:16:00,
2013-07-08 05:21:00,76.5,65.2,30.10,South,180,2.2,3.4,68,0.00,,,0.00,WUHU216HW,2013-07-08 10:21:00,
2013-07-08 05:26:00,76.5,65.2,30.10,WSW,248,1.1,3.4,68,0.00,,,0.00,WUHU216HW,2013-07-08 10:26:00,
2013-07-08 05:31:00,76.5,65.2,30.10,SSW,203,2.5,4.0,68,0.00,,,0.00,WUHU216HW,2013-07-08 10:31:00,
2013-07-08 05:36:00,76.5,65.2,30.10,SSW,203,1.1,4.0,68,0.00,,,0.00,WUHU216HW,2013-07-08 10:36:00,
2013-07-08 05:41:00,76.7,65.3,30.10,SE,135,1.3,3.4,68,0.00,,,0.00,WUHU216HW,2013-07-08 10:41:00,
2013-07-08 05:46:00,76.7,65.3,30.10,SW,225,2.0,3.6,68,0.00,,,0.00,WUHU216HW,2013-07-08 10:46:00,
2013-07-08 05:51:00,76.5,65.2,30.10,SSW,203,1.8,4.5,68,0.00,,,0.00,WUHU216HW,2013-07-08 10:51:00,
2013-07-08 05:56:00,76.5,65.6,30.10,SE,135,1.1,4.5,69,0.00,,,0.00,WUHU216HW,2013-07-08 10:56:00,
2013-07-08 06:01:00,76.5,65.6,30.10,WSW,248,3.4,5.4,69,0.00,,,0.00,WUHU216HW,2013-07-08 11:01:00,
2013-07-08 06:06:00,76.5,65.6,30.10,SSW,203,1.3,5.4,69,0.00,,,0.00,WUHU216HW,2013-07-08 11:06:00,
2013-07-08 06:11:00,76.5,65.6,30.10,WSW,248,2.7,4.3,69,0.00,,,0.00,WUHU216HW,2013-07-08 11:11:00,
2013-07-08 06:16:00,76.5,65.6,30.10,SW,225,1.6,4.3,69,0.00,,,0.00,WUHU216HW,2013-07-08 11:16:00,
2013-07-08 06:21:00,76.5,65.6,30.10,WSW,248,2.9,3.4,69,0.00,,,0.00,WUHU216HW,2013-07-08 11:21:00,
2013-07-08 06:26:00,76.7,66.2,30.10,SW,225,1.8,3.4,70,0.00,,,0.00,WUHU216HW,2013-07-08 11:26:00,
2013-07-08 06:31:00,76.7,66.2,30.10,West,270,1.3,2.9,70,0.00,,,0.00,WUHU216HW,2013-07-08 11:31:00,
2013-07-08 06:36:00,76.7,66.2,30.10,SW,225,0.9,2.7,70,0.00,,,0.00,WUHU216HW,2013-07-08 11:36:00,
2013-07-08 06:41:00,76.7,66.6,30.11,South,180,1.3,2.7,71,0.00,,,0.00,WUHU216HW,2013-07-08 11:41:00,
2013-07-08 06:46:00,76.7,66.6,30.10,SW,225,1.1,2.7,71,0.00,,,0.00,WUHU216HW,2013-07-08 11:46:00,
2013-07-08 06:51:00,76.7,66.6,30.10,South,180,1.1,2.5,71,0.00,,,0.00,WUHU216HW,2013-07-08 11:51:00,
2013-07-08 06:56:00,76.7,66.6,30.10,WSW,248,0.2,2.5,71,0.00,,,0.00,WUHU216HW,2013-07-08 11:56:00,
2013-07-08 07:01:00,76.7,67.0,30.10,SSE,158,2.0,2.0,72,0.00,,,0.00,WUHU216HW,2013-07-08 12:01:00,
2013-07-08 07:06:00,76.9,67.1,30.10,South,180,1.8,2.0,72,0.00,,,0.00,WUHU216HW,2013-07-08 12:06:00,
2013-07-08 07:11:00,76.9,67.1,30.10,SSE,158,0.4,2.0,72,0.00,,,0.00,WUHU216HW,2013-07-08 12:11:00,
2013-07-08 07:16:00,76.7,67.4,30.10,SSW,203,0.9,3.1,73,0.00,,,0.00,WUHU216HW,2013-07-08 12:16:00,
2013-07-08 07:21:00,76.9,67.6,30.10,WSW,248,1.1,3.1,73,0.00,,,0.00,WUHU216HW,2013-07-08 12:21:00,
2013-07-08 07:26:00,76.9,68.0,30.11,SSW,203,1.1,2.0,74,0.00,,,0.00,WUHU216HW,2013-07-08 12:26:00,
2013-07-08 07:31:00,76.9,68.3,30.10,South,180,1.8,2.0,75,0.00,,,0.00,WUHU216HW,2013-07-08 12:31:00,
2013-07-08 07:36:00,77.0,68.5,30.10,SSE,158,1.1,2.0,75,0.00,,,0.00,WUHU216HW,2013-07-08 12:36:00,
2013-07-08 07:41:00,77.0,68.5,30.10,South,180,2.0,4.5,75,0.00,,,0.00,WUHU216HW,2013-07-08 12:41:00,
2013-07-08 07:46:00,77.0,68.5,30.10,South,180,1.1,4.5,75,0.00,,,0.00,WUHU216HW,2013-07-08 12:46:00,
2013-07-08 07:51:00,77.0,68.9,30.11,SSW,203,2.2,2.2,76,0.00,,,0.00,WUHU216HW,2013-07-08 12:51:00,
2013-07-08 07:56:00,77.4,69.2,30.11,West,270,4.0,4.0,76,0.00,,,0.00,WUHU216HW,2013-07-08 12:56:00,
2013-07-08 08:01:00,77.4,69.2,30.11,SSE,158,1.3,4.0,76,0.00,,,0.00,WUHU216HW,2013-07-08 13:01:00,
2013-07-08 08:06:00,77.4,69.2,30.11,West,270,2.0,4.0,76,0.00,,,0.00,WUHU216HW,2013-07-08 13:06:00,
2013-07-08 08:11:00,77.4,69.2,30.11,SSE,158,1.1,2.0,76,0.00,,,0.00,WUHU216HW,2013-07-08 13:11:00,
2013-07-08 08:16:00,77.6,69.4,30.11,SSW,203,2.2,4.7,76,0.00,,,0.00,WUHU216HW,2013-07-08 13:16:00,
2013-07-08 08:21:00,77.8,69.2,30.11,South,180,1.6,4.7,75,0.00,,,0.00,WUHU216HW,2013-07-08 13:21:00,
2013-07-08 08:26:00,77.8,69.2,30.11,SE,135,2.5,2.5,75,0.00,,,0.00,WUHU216HW,2013-07-08 13:26:00,
2013-07-08 08:31:00,77.9,69.3,30.12,South,180,1.6,2.5,75,0.00,,,0.00,WUHU216HW,2013-07-08 13:31:00,
2013-07-08 08:36:00,78.1,69.5,30.12,SSW,203,1.3,3.4,75,0.00,,,0.00,WUHU216HW,2013-07-08 13:36:00,
2013-07-08 08:41:00,78.1,69.5,30.12,SW,225,3.4,3.4,75,0.00,,,0.00,WUHU216HW,2013-07-08 13:41:00,
2013-07-08 08:46:00,78.8,70.2,30.12,SSE,158,1.8,3.4,75,0.00,,,0.00,WUHU216HW,2013-07-08 13:46:00,
2013-07-08 08:51:00,79.0,70.0,30.12,SSW,203,2.7,4.3,74,0.00,,,0.00,WUHU216HW,2013-07-08 13:51:00,
2013-07-08 08:56:00,79.2,69.8,30.12,SW,225,1.8,4.3,73,0.00,,,0.00,WUHU216HW,2013-07-08 13:56:00,
2013-07-08 09:01:00,79.6,69.8,30.13,SSE,158,3.4,3.4,72,0.00,,,0.00,WUHU216HW,2013-07-08 14:01:00,
2013-07-08 09:06:00,79.7,69.5,30.13,WSW,248,3.1,3.4,71,0.00,,,0.00,WUHU216HW,2013-07-08 14:06:00,
2013-07-08 09:11:00,80.1,69.5,30.13,WSW,248,1.1,4.7,70,0.00,,,0.00,WUHU216HW,2013-07-08 14:11:00,
2013-07-08 09:16:00,80.3,68.8,30.13,WNW,293,2.0,4.7,68,0.00,,,0.00,WUHU216HW,2013-07-08 14:16:00,
2013-07-08 09:21:00,80.6,68.2,30.13,WSW,248,1.6,4.0,66,0.00,,,0.00,WUHU216HW,2013-07-08 14:21:00,
2013-07-08 09:26:00,80.5,68.0,30.13,SE,135,2.0,4.0,66,0.00,,,0.00,WUHU216HW,2013-07-08 14:26:00,
2013-07-08 09:31:00,80.5,68.0,30.13,West,270,1.3,5.4,66,0.00,,,0.00,WUHU216HW,2013-07-08 14:31:00,
2013-07-08 09:36:00,80.5,68.0,30.13,SSW,203,0.9,5.4,66,0.00,,,0.00,WUHU216HW,2013-07-08 14:36:00,
2013-07-08 09:41:00,80.6,68.2,30.13,SSW,203,1.6,5.6,66,0.00,,,0.00,WUHU216HW,2013-07-08 14:41:00,
2013-07-08 09:46:00,80.6,68.2,30.14,SW,225,1.1,5.6,66,0.00,,,0.00,WUHU216HW,2013-07-08 14:46:00,
2013-07-08 09:51:00,80.8,68.4,30.13,SSW,203,0.7,4.7,66,0.00,,,0.00,WUHU216HW,2013-07-08 14:51:00,
2013-07-08 09:56:00,81.0,68.6,30.14,SE,135,3.6,4.7,66,0.00,,,0.00,WUHU216HW,2013-07-08 14:56:00,
2013-07-08 10:01:00,81.4,68.9,30.13,WSW,248,3.6,4.5,66,0.00,,,0.00,WUHU216HW,2013-07-08 15:01:00,
2013-07-08 10:06:00,82.1,68.6,30.14,SSW,203,0.7,4.5,64,0.00,,,0.00,WUHU216HW,2013-07-08 15:06:00,
2013-07-08 10:11:00,82.1,68.6,30.14,SSE,158,3.8,3.8,64,0.00,,,0.00,WUHU216HW,2013-07-08 15:11:00,
2013-07-08 10:16:00,82.3,67.9,30.14,SSE,158,2.5,5.4,62,0.00,,,0.00,WUHU216HW,2013-07-08 15:16:00,
2013-07-08 10:21:00,82.3,67.4,30.14,SSW,203,1.1,5.4,61,0.00,,,0.00,WUHU216HW,2013-07-08 15:21:00,
2013-07-08 10:26:00,82.1,67.2,30.14,WSW,248,2.0,6.3,61,0.00,,,0.00,WUHU216HW,2013-07-08 15:26:00,
2013-07-08 10:31:00,82.1,66.8,30.14,WSW,248,2.9,6.3,60,0.00,,,0.00,WUHU216HW,2013-07-08 15:31:00,
2013-07-08 10:36:00,82.4,67.1,30.14,SW,225,2.7,6.3,60,0.00,,,0.00,WUHU216HW,2013-07-08 15:36:00,
2013-07-08 10:41:00,82.4,66.6,30.14,SE,135,5.4,5.4,59,0.00,,,0.00,WUHU216HW,2013-07-08 15:41:00,
2013-07-08 10:46:00,82.8,67.0,30.14,SSE,158,2.5,5.4,59,0.00,,,0.00,WUHU216HW,2013-07-08 15:46:00,
2013-07-08 10:51:00,82.8,66.4,30.14,SSW,203,1.8,5.4,58,0.00,,,0.00,WUHU216HW,2013-07-08 15:51:00,
2013-07-08 10:56:00,82.8,67.0,30.14,SSW,203,4.5,4.5,59,0.00,,,0.00,WUHU216HW,2013-07-08 15:56:00,
2013-07-08 11:01:00,83.0,67.1,30.14,West,270,4.0,5.1,59,0.00,,,0.00,WUHU216HW,2013-07-08 16:01:00,
2013-07-08 11:06:00,83.2,68.3,30.14,WSW,248,1.8,5.1,61,0.00,,,0.00,WUHU216HW,2013-07-08 16:06:00,
2013-07-08 11:11:00,83.5,68.7,30.14,South,180,2.2,4.0,61,0.00,,,0.00,WUHU216HW,2013-07-08 16:11:00,
2013-07-08 11:16:00,83.7,68.9,30.14,SSE,158,2.7,3.8,61,0.00,,,0.00,WUHU216HW,2013-07-08 16:16:00,
2013-07-08 11:21:00,84.2,69.8,30.14,SSE,158,2.2,5.6,62,0.00,,,0.00,WUHU216HW,2013-07-08 16:21:00,
2013-07-08 11:26:00,84.6,69.8,30.14,SSE,158,4.0,8.3,61,0.00,,,0.00,WUHU216HW,2013-07-08 16:26:00,
2013-07-08 11:31:00,85.0,69.6,30.14,SE,135,1.3,8.3,60,0.00,,,0.00,WUHU216HW,2013-07-08 16:31:00,
2013-07-08 11:36:00,85.1,69.2,30.14,South,180,4.7,5.4,59,0.00,,,0.00,WUHU216HW,2013-07-08 16:36:00,
2013-07-08 11:41:00,85.3,68.3,30.14,ESE,113,3.1,5.4,57,0.00,,,0.00,WUHU216HW,2013-07-08 16:41:00,
2013-07-08 11:46:00,85.7,68.1,30.14,NW,315,3.6,8.3,56,0.00,,,0.00,WUHU216HW,2013-07-08 16:46:00,
2013-07-08 11:51:00,86.0,68.5,30.14,South,180,1.8,8.3,56,0.00,,,0.00,WUHU216HW,2013-07-08 16:51:00,
2013-07-08 11:56:00,86.2,67.6,30.14,SE,135,4.9,7.6,54,0.00,,,0.00,WUHU216HW,2013-07-08 16:56:00,
2013-07-08 12:01:00,86.0,66.9,30.14,South,180,4.0,9.4,53,0.00,,,0.00,WUHU216HW,2013-07-08 17:01:00,
2013-07-08 12:06:00,86.2,67.1,30.14,SW,225,1.8,9.4,53,0.00,,,0.00,WUHU216HW,2013-07-08 17:06:00,
2013-07-08 12:12:00,86.4,66.7,30.14,SSE,158,0.9,6.9,52,0.00,,,0.00,WUHU216HW,2013-07-08 17:12:00,
2013-07-08 12:17:00,86.4,67.2,30.14,SSW,203,3.4,5.6,53,0.00,,,0.00,WUHU216HW,2013-07-08 17:17:00,
2013-07-08 12:22:00,86.4,67.2,30.14,WSW,248,3.4,4.5,53,0.00,,,0.00,WUHU216HW,2013-07-08 17:22:00,
2013-07-08 12:27:00,86.8,67.6,30.13,SW,225,2.7,5.4,53,0.00,,,0.00,WUHU216HW,2013-07-08 17:27:00,
2013-07-08 12:32:00,86.8,67.6,30.14,SSE,158,2.2,5.4,53,0.00,,,0.00,WUHU216HW,2013-07-08 17:32:00,
2013-07-08 12:37:00,86.9,67.8,30.14,South,180,3.1,7.4,53,0.00,,,0.00,WUHU216HW,2013-07-08 17:37:00,
2013-07-08 12:42:00,86.9,67.2,30.14,East,90,1.6,7.4,52,0.00,,,0.00,WUHU216HW,2013-07-08 17:42:00,
2013-07-08 12:47:00,86.9,67.2,30.14,South,180,4.5,6.0,52,0.00,,,0.00,WUHU216HW,2013-07-08 17:47:00,
2013-07-08 12:52:00,87.1,67.4,30.14,SSW,203,1.8,6.0,52,0.00,,,0.00,WUHU216HW,2013-07-08 17:52:00,
2013-07-08 12:57:00,87.1,67.4,30.14,South,180,1.1,4.7,52,0.00,,,0.00,WUHU216HW,2013-07-08 17:57:00,
2013-07-08 13:02:00,87.3,67.5,30.13,SW,225,2.5,4.7,52,0.00,,,0.00,WUHU216HW,2013-07-08 18:02:00,
2013-07-08 13:07:00,87.5,68.2,30.13,SSE,158,6.0,6.0,53,0.00,,,0.00,WUHU216HW,2013-07-08 18:07:00,
2013-07-08 13:13:00,88.0,67.7,30.13,SE,135,2.0,7.6,51,0.00,,,0.00,WUHU216HW,2013-07-08 18:13:00,
2013-07-08 13:18:00,88.7,68.3,30.13,SSE,158,1.8,7.6,51,0.00,,,0.00,WUHU216HW,2013-07-08 18:18:00,
2013-07-08 13:23:00,88.9,67.3,30.13,SSW,203,2.7,5.6,49,0.00,,,0.00,WUHU216HW,2013-07-08 18:23:00,
2013-07-08 13:28:00,89.1,67.4,30.13,WNW,293,1.8,5.4,49,0.00,,,0.00,WUHU216HW,2013-07-08 18:28:00,
2013-07-08 13:33:00,89.5,67.8,30.13,SSE,158,1.6,5.4,49,0.00,,,0.00,WUHU216HW,2013-07-08 18:33:00,
2013-07-08 13:38:00,89.8,68.8,30.12,SSE,158,2.2,5.4,50,0.00,,,0.00,WUHU216HW,2013-07-08 18:38:00,
2013-07-08 13:44:00,90.0,67.6,30.12,SW,225,3.4,8.3,48,0.00,,,0.00,WUHU216HW,2013-07-08 18:44:00,
2013-07-08 13:49:00,90.5,67.4,30.12,SSE,158,2.7,8.3,47,0.00,,,0.00,WUHU216HW,2013-07-08 18:49:00,
2013-07-08 13:54:00,90.9,67.8,30.12,SSW,203,1.3,6.0,47,0.00,,,0.00,WUHU216HW,2013-07-08 18:54:00,
2013-07-08 13:59:00,91.3,67.4,30.12,SE,135,4.3,5.1,46,0.00,,,0.00,WUHU216HW,2013-07-08 18:59:00,
2013-07-08 14:05:00,91.4,67.6,30.12,West,270,3.6,4.9,46,0.00,,,0.00,WUHU216HW,2013-07-08 19:05:00,
2013-07-08 14:10:00,91.6,67.8,30.11,South,180,5.6,5.6,46,0.00,,,0.00,WUHU216HW,2013-07-08 19:10:00,
2013-07-08 14:15:00,91.6,67.2,30.11,SSE,158,4.0,5.6,45,0.00,,,0.00,WUHU216HW,2013-07-08 19:15:00,
2013-07-08 14:20:00,91.8,67.3,30.11,ESE,113,1.3,5.6,45,0.00,,,0.00,WUHU216HW,2013-07-08 19:20:00,
2013-07-08 14:25:00,92.0,67.4,30.11,SW,225,3.4,5.6,45,0.00,,,0.00,WUHU216HW,2013-07-08 19:25:00,
2013-07-08 14:30:00,92.2,67.6,30.11,SSW,203,2.2,5.1,45,0.00,,,0.00,WUHU216HW,2013-07-08 19:30:00,
2013-07-08 14:35:00,92.3,68.4,30.11,South,180,0.4,3.1,46,0.00,,,0.00,WUHU216HW,2013-07-08 19:35:00,
2013-07-08 14:41:00,92.3,68.4,30.11,South,180,6.5,6.5,46,0.00,,,0.00,WUHU216HW,2013-07-08 19:41:00,
2013-07-08 14:46:00,92.5,68.6,30.11,SW,225,2.2,6.5,46,0.00,,,0.00,WUHU216HW,2013-07-08 19:46:00,
2013-07-08 14:51:00,92.7,67.4,30.11,SSW,203,2.5,6.5,44,0.00,,,0.00,WUHU216HW,2013-07-08 19:51:00,
2013-07-08 14:56:00,92.9,67.6,30.11,South,180,2.7,4.5,44,0.00,,,0.00,WUHU216HW,2013-07-08 19:56:00,
2013-07-08 15:01:00,92.7,67.4,30.10,South,180,1.8,5.1,44,0.00,,,0.00,WUHU216HW,2013-07-08 20:01:00,
2013-07-08 15:06:00,92.5,67.3,30.10,South,180,2.5,5.1,44,0.00,,,0.00,WUHU216HW,2013-07-08 20:06:00,
2013-07-08 15:11:00,92.7,67.4,30.10,South,180,2.0,5.6,44,0.00,,,0.00,WUHU216HW,2013-07-08 20:11:00,
2013-07-08 15:16:00,93.1,67.8,30.10,SE,135,2.9,5.6,44,0.00,,,0.00,WUHU216HW,2013-07-08 20:16:00,
2013-07-08 15:22:00,93.2,67.3,30.10,SW,225,5.4,5.4,43,0.00,,,0.00,WUHU216HW,2013-07-08 20:22:00,
2013-07-08 15:27:00,93.2,68.0,30.10,WNW,293,1.1,5.4,44,0.00,,,0.00,WUHU216HW,2013-07-08 20:27:00,
2013-07-08 15:32:00,93.4,68.1,30.10,SE,135,1.3,5.4,44,0.00,,,0.00,WUHU216HW,2013-07-08 20:32:00,
2013-07-08 15:37:00,93.6,67.6,30.10,SSW,203,2.9,4.9,43,0.00,,,0.00,WUHU216HW,2013-07-08 20:37:00,
2013-07-08 15:42:00,94.0,67.3,30.10,SSW,203,2.7,4.9,42,0.00,,,0.00,WUHU216HW,2013-07-08 20:42:00,
2013-07-08 15:47:00,94.0,67.3,30.10,SE,135,0.7,3.4,42,0.00,,,0.00,WUHU216HW,2013-07-08 20:47:00,
2013-07-08 15:52:00,94.3,67.0,30.10,SW,225,2.2,3.4,41,0.00,,,0.00,WUHU216HW,2013-07-08 20:52:00,
2013-07-08 15:57:00,94.3,67.0,30.10,WSW,248,5.1,5.1,41,0.00,,,0.00,WUHU216HW,2013-07-08 20:57:00,
2013-07-08 16:02:00,94.3,66.3,30.10,ESE,113,4.7,5.6,40,0.00,,,0.00,WUHU216HW,2013-07-08 21:02:00,
2013-07-08 16:07:00,94.3,66.3,30.10,SSW,203,1.8,5.6,40,0.00,,,0.00,WUHU216HW,2013-07-08 21:07:00,
2013-07-08 16:13:00,94.3,67.0,30.10,SSE,158,4.0,4.7,41,0.00,,,0.00,WUHU216HW,2013-07-08 21:13:00,
2013-07-08 16:18:00,94.3,66.3,30.10,SSW,203,4.0,4.7,40,0.00,,,0.00,WUHU216HW,2013-07-08 21:18:00,
2013-07-08 16:23:00,94.3,67.0,30.10,WSW,248,3.1,4.7,41,0.00,,,0.00,WUHU216HW,2013-07-08 21:23:00,
2013-07-08 16:28:00,94.5,66.5,30.09,SSE,158,2.7,4.7,40,0.00,,,0.00,WUHU216HW,2013-07-08 21:28:00,
2013-07-08 16:33:00,94.7,67.3,30.10,NE,45,2.0,4.7,41,0.00,,,0.00,WUHU216HW,2013-07-08 21:33:00,
2013-07-08 16:38:00,94.5,67.8,30.09,SSE,158,2.0,5.4,42,0.00,,,0.00,WUHU216HW,2013-07-08 21:38:00,
2013-07-08 16:43:00,94.3,67.6,30.10,SSE,158,0.9,5.4,42,0.00,,,0.00,WUHU216HW,2013-07-08 21:43:00,
2013-07-08 16:48:00,94.1,67.5,30.10,SSW,203,3.4,3.6,42,0.00,,,0.00,WUHU216HW,2013-07-08 21:48:00,
2013-07-08 16:54:00,94.0,66.6,30.10,SSW,203,3.6,4.7,41,0.00,,,0.00,WUHU216HW,2013-07-08 21:54:00,
2013-07-08 16:59:00,94.0,66.6,30.09,WSW,248,1.1,5.4,41,0.00,,,0.00,WUHU216HW,2013-07-08 21:59:00,
2013-07-08 17:04:00,94.0,67.3,30.09,SSE,158,4.0,6.0,42,0.00,,,0.00,WUHU216HW,2013-07-08 22:04:00,
2013-07-08 17:09:00,93.8,66.5,30.09,SSW,203,1.8,6.0,41,0.00,,,0.00,WUHU216HW,2013-07-08 22:09:00,
2013-07-08 17:15:00,93.6,66.3,30.09,SW,225,5.1,6.3,41,0.00,,,0.00,WUHU216HW,2013-07-08 22:15:00,
2013-07-08 17:20:00,93.6,66.3,30.09,ENE,68,1.8,6.3,41,0.00,,,0.00,WUHU216HW,2013-07-08 22:20:00,
2013-07-08 17:25:00,93.2,66.0,30.09,SSE,158,4.0,5.4,41,0.00,,,0.00,WUHU216HW,2013-07-08 22:25:00,
2013-07-08 17:30:00,92.9,66.3,30.09,SSW,203,3.1,5.4,42,0.00,,,0.00,WUHU216HW,2013-07-08 22:30:00,
2013-07-08 17:35:00,92.7,66.8,30.09,SSE,158,0.7,5.6,43,0.00,,,0.00,WUHU216HW,2013-07-08 22:35:00,
2013-07-08 17:41:00,92.5,66.6,30.08,SSW,203,1.8,5.6,43,0.00,,,0.00,WUHU216HW,2013-07-08 22:41:00,
2013-07-08 17:46:00,92.2,66.3,30.08,SSE,158,1.3,4.3,43,0.00,,,0.00,WUHU216HW,2013-07-08 22:46:00,
2013-07-08 17:51:00,92.0,66.2,30.08,SSW,203,3.8,4.3,43,0.00,,,0.00,WUHU216HW,2013-07-08 22:51:00,
2013-07-08 17:56:00,91.8,66.0,30.08,South,180,2.0,4.0,43,0.00,,,0.00,WUHU216HW,2013-07-08 22:56:00,
2013-07-08 18:01:00,91.6,66.5,30.08,SW,225,4.0,4.0,44,0.00,,,0.00,WUHU216HW,2013-07-08 23:01:00,
2013-07-08 18:06:00,91.6,66.5,30.08,SSW,203,1.8,4.0,44,0.00,,,0.00,WUHU216HW,2013-07-08 23:06:00,
2013-07-08 18:11:00,91.4,66.3,30.07,South,180,3.4,4.0,44,0.00,,,0.00,WUHU216HW,2013-07-08 23:11:00,
2013-07-08 18:16:00,91.4,66.3,30.08,SE,135,4.9,6.9,44,0.00,,,0.00,WUHU216HW,2013-07-08 23:16:00,
2013-07-08 18:21:00,91.4,66.3,30.07,SW,225,4.7,6.9,44,0.00,,,0.00,WUHU216HW,2013-07-08 23:21:00,
2013-07-08 18:26:00,91.3,66.2,30.07,WSW,248,4.0,5.6,44,0.00,,,0.00,WUHU216HW,2013-07-08 23:26:00,
2013-07-08 18:32:00,91.1,66.0,30.07,SSW,203,2.2,7.6,44,0.00,,,0.00,WUHU216HW,2013-07-08 23:32:00,
2013-07-08 18:37:00,91.1,65.3,30.07,SSW,203,1.8,7.6,43,0.00,,,0.00,WUHU216HW,2013-07-08 23:37:00,
2013-07-08 18:42:00,90.7,65.0,30.08,ESE,113,3.1,8.9,43,0.00,,,0.00,WUHU216HW,2013-07-08 23:42:00,
2013-07-08 18:47:00,90.5,65.5,30.08,SSW,203,4.3,8.9,44,0.00,,,0.00,WUHU216HW,2013-07-08 23:47:00,
2013-07-08 18:52:00,90.4,65.3,30.08,SE,135,2.9,4.3,44,0.00,,,0.00,WUHU216HW,2013-07-08 23:52:00,
2013-07-08 18:57:00,90.4,65.3,30.08,SW,225,1.1,4.9,44,0.00,,,0.00,WUHU216HW,2013-07-08 23:57:00,
2013-07-08 19:02:00,90.4,64.7,30.08,SSE,158,2.2,4.9,43,0.00,,,0.00,WUHU216HW,2013-07-09 00:02:00,
2013-07-08 19:08:00,90.0,65.0,30.08,South,180,1.6,4.7,44,0.00,,,0.00,WUHU216HW,2013-07-09 00:08:00,
2013-07-08 19:13:00,90.0,65.0,30.07,South,180,1.8,4.7,44,0.00,,,0.00,WUHU216HW,2013-07-09 00:13:00,
2013-07-08 19:18:00,90.0,65.0,30.07,SSW,203,0.9,2.7,44,0.00,,,0.00,WUHU216HW,2013-07-09 00:18:00,
2013-07-08 19:23:00,89.6,65.3,30.08,SSW,203,1.1,4.0,45,0.00,,,0.00,WUHU216HW,2013-07-09 00:23:00,
2013-07-08 19:28:00,89.6,65.3,30.08,SSW,203,0.7,4.0,45,0.00,,,0.00,WUHU216HW,2013-07-09 00:28:00,
2013-07-08 19:33:00,89.5,65.2,30.07,South,180,1.1,3.6,45,0.00,,,0.00,WUHU216HW,2013-07-09 00:33:00,
2013-07-08 19:38:00,89.3,65.7,30.08,South,180,0.9,3.6,46,0.00,,,0.00,WUHU216HW,2013-07-09 00:38:00,
2013-07-08 19:44:00,89.1,65.5,30.07,SSE,158,6.5,6.5,46,0.00,,,0.00,WUHU216HW,2013-07-09 00:44:00,
2013-07-08 19:49:00,88.9,65.3,30.07,South,180,1.1,6.5,46,0.00,,,0.00,WUHU216HW,2013-07-09 00:49:00,
2013-07-08 19:54:00,88.7,65.3,30.07,SE,135,3.6,4.5,46,0.00,,,0.00,WUHU216HW,2013-07-09 00:54:00,
2013-07-08 20:00:00,88.6,65.1,30.07,South,180,2.0,4.5,46,0.00,,,0.00,WUHU216HW,2013-07-09 01:00:00,
2013-07-08 20:05:00,88.4,64.9,30.07,SSW,203,1.6,4.3,46,0.00,,,0.00,WUHU216HW,2013-07-09 01:05:00,
2013-07-08 20:10:00,88.2,64.7,30.07,SSW,203,2.2,4.0,46,0.00,,,0.00,WUHU216HW,2013-07-09 01:10:00,
2013-07-08 20:15:00,88.2,64.7,30.07,SSE,158,5.1,5.1,46,0.00,,,0.00,WUHU216HW,2013-07-09 01:15:00,
2013-07-08 20:20:00,87.8,64.4,30.07,SW,225,2.5,5.1,46,0.00,,,0.00,WUHU216HW,2013-07-09 01:20:00,
2013-07-08 20:26:00,87.7,64.9,30.08,SSE,158,2.9,5.1,47,0.00,,,0.00,WUHU216HW,2013-07-09 01:26:00,
2013-07-08 20:31:00,87.5,64.7,30.07,SSE,158,3.1,4.3,47,0.00,,,0.00,WUHU216HW,2013-07-09 01:31:00,
2013-07-08 20:36:00,87.1,64.5,30.07,South,180,2.5,3.6,47,0.00,,,0.00,WUHU216HW,2013-07-09 01:36:00,
2013-07-08 20:41:00,87.1,64.5,30.07,SSW,203,4.7,4.7,47,0.00,,,0.00,WUHU216HW,2013-07-09 01:41:00,
2013-07-08 20:46:00,86.8,64.1,30.07,SSE,158,2.7,4.7,47,0.00,,,0.00,WUHU216HW,2013-07-09 01:46:00,
2013-07-08 20:52:00,86.8,64.1,30.07,SSW,203,1.6,4.7,47,0.00,,,0.00,WUHU216HW,2013-07-09 01:52:00,
2013-07-08 20:57:00,86.6,63.9,30.07,SSW,203,1.1,4.0,47,0.00,,,0.00,WUHU216HW,2013-07-09 01:57:00,
2013-07-08 21:02:00,86.4,63.8,30.07,SSE,158,3.1,3.4,47,0.00,,,0.00,WUHU216HW,2013-07-09 02:02:00,
2013-07-08 21:07:00,86.2,63.6,30.07,South,180,2.5,3.4,47,0.00,,,0.00,WUHU216HW,2013-07-09 02:07:00,
2013-07-08 21:13:00,86.0,64.1,30.07,South,180,1.8,3.1,48,0.00,,,0.00,WUHU216HW,2013-07-09 02:13:00,
2013-07-08 21:18:00,86.0,64.1,30.08,SSE,158,1.3,2.9,48,0.00,,,0.00,WUHU216HW,2013-07-09 02:18:00,
2013-07-08 21:23:00,85.7,63.7,30.08,SSW,203,2.2,3.1,48,0.00,,,0.00,WUHU216HW,2013-07-09 02:23:00,
2013-07-08 21:28:00,85.5,63.6,30.08,SSE,158,2.7,3.1,48,0.00,,,0.00,WUHU216HW,2013-07-09 02:28:00,
2013-07-08 21:33:00,85.5,63.6,30.08,SSE,158,1.8,3.1,48,0.00,,,0.00,WUHU216HW,2013-07-09 02:33:00,
2013-07-08 21:38:00,85.3,64.1,30.08,South,180,1.8,2.7,49,0.00,,,0.00,WUHU216HW,2013-07-09 02:38:00,
2013-07-08 21:43:00,85.1,64.5,30.08,SSE,158,1.6,4.7,50,0.00,,,0.00,WUHU216HW,2013-07-09 02:43:00,
2013-07-08 21:48:00,85.0,63.7,30.09,SSE,158,1.8,4.7,49,0.00,,,0.00,WUHU216HW,2013-07-09 02:48:00,
2013-07-08 21:53:00,84.8,64.2,30.09,South,180,2.9,4.0,50,0.00,,,0.00,WUHU216HW,2013-07-09 02:53:00,
2013-07-08 21:59:00,84.6,64.1,30.09,South,180,4.5,4.5,50,0.00,,,0.00,WUHU216HW,2013-07-09 02:59:00,
2013-07-08 22:04:00,84.6,64.1,30.09,SSE,158,2.5,4.5,50,0.00,,,0.00,WUHU216HW,2013-07-09 03:04:00,
2013-07-08 22:09:00,84.6,64.5,30.10,SSE,158,1.8,4.5,51,0.00,,,0.00,WUHU216HW,2013-07-09 03:09:00,
2013-07-08 22:14:00,84.4,63.9,30.09,South,180,2.7,4.3,50,0.00,,,0.00,WUHU216HW,2013-07-09 03:14:00,
2013-07-08 22:19:00,84.2,63.7,30.09,SSE,158,3.4,4.3,50,0.00,,,0.00,WUHU216HW,2013-07-09 03:19:00,
2013-07-08 22:25:00,84.1,63.5,30.10,South,180,2.7,4.5,50,0.00,,,0.00,WUHU216HW,2013-07-09 03:25:00,
2013-07-08 22:30:00,84.1,63.5,30.10,SSW,203,2.2,4.5,50,0.00,,,0.00,WUHU216HW,2013-07-09 03:30:00,
2013-07-08 22:35:00,83.9,63.4,30.10,South,180,1.8,3.4,50,0.00,,,0.00,WUHU216HW,2013-07-09 03:35:00,
2013-07-08 22:40:00,83.9,63.9,30.10,SSW,203,1.6,5.1,51,0.00,,,0.00,WUHU216HW,2013-07-09 03:40:00,
2013-07-08 22:45:00,83.7,63.7,30.10,SW,225,0.9,5.1,51,0.00,,,0.00,WUHU216HW,2013-07-09 03:45:00,
2013-07-08 22:50:00,83.7,63.7,30.10,SSE,158,2.0,2.5,51,0.00,,,0.00,WUHU216HW,2013-07-09 03:50:00,
2013-07-08 22:56:00,83.5,63.6,30.10,South,180,3.1,3.1,51,0.00,,,0.00,WUHU216HW,2013-07-09 03:56:00,
2013-07-08 23:01:00,83.5,64.1,30.10,South,180,2.5,3.1,52,0.00,,,0.00,WUHU216HW,2013-07-09 04:01:00,
2013-07-08 23:02:00,83.3,63.9,30.10,South,180,2.0,3.1,52,0.00,,,0.00,WUHU216HW,2013-07-09 04:02:00,
2013-07-08 23:07:00,83.3,63.9,30.10,SSW,203,1.6,3.1,52,0.00,,,0.00,WUHU216HW,2013-07-09 04:07:00,
2013-07-08 23:12:00,83.2,63.7,30.10,SSE,158,1.1,4.0,52,0.00,,,0.00,WUHU216HW,2013-07-09 04:12:00,
2013-07-08 23:17:00,83.2,63.7,30.10,SSE,158,0.9,4.0,52,0.00,,,0.00,WUHU216HW,2013-07-09 04:17:00,
2013-07-08 23:22:00,83.2,64.2,30.10,SSE,158,0.7,3.6,53,0.00,,,0.00,WUHU216HW,2013-07-09 04:22:00,
2013-07-08 23:27:00,83.0,63.6,30.10,South,180,2.9,4.5,52,0.00,,,0.00,WUHU216HW,2013-07-09 04:27:00,
2013-07-08 23:32:00,83.0,64.0,30.10,SSE,158,1.8,4.5,53,0.00,,,0.00,WUHU216HW,2013-07-09 04:32:00,
2013-07-08 23:37:00,82.8,63.8,30.10,SW,225,1.8,2.9,53,0.00,,,0.00,WUHU216HW,2013-07-09 04:37:00,
2013-07-08 23:42:00,82.8,63.8,30.10,SSE,158,1.8,3.4,53,0.00,,,0.00,WUHU216HW,2013-07-09 04:42:00,
2013-07-08 23:47:00,82.8,63.8,30.09,SSW,203,2.5,3.4,53,0.00,,,0.00,WUHU216HW,2013-07-09 04:47:00,
2013-07-08 23:52:00,82.6,63.6,30.09,South,180,1.8,2.9,53,0.00,,,0.00,WUHU216HW,2013-07-09 04:52:00,
2013-07-08 23:57:00,82.6,63.6,30.09,South,180,2.5,4.0,53,0.00,,,0.00,WUHU216HW,2013-07-09 04:57:00,